STATID,TT.MM.JJJJ,TX,TXF,TM,TMF,TN,TNF,RR,RRF,RF,RFF,DD,DDF,SD,SDF,FF,FFF,ET,RG,SN,SNF,FM,FMF,RK,RKF,GR
50144,01.01.1961,,,,,,,,,,,,,,,,,,,6,0,,,,,
50144,02.01.1961,,,,,,,,,,,,,,,,,,,6,0,,,,,
50144,03.01.1961,,,,,,,,,,,,,,,,,,,6,0,,,,,
50144,04.01.1961,,,,,,,,,,,,,,,,,,,6,0,,,,,
50144,05.01.1961,,,,,,,,,,,,,,,,,,,6,0,,,,,
50144,06.01.1961,,,,,,,,,,,,,,,,,,,9,0,,,,,
50144,07.01.1961,,,,,,,,,,,,,,,,,,,12,0,,,,,
50144,08.01.1961,,,,,,,,,,,,,,,,,,,13,0,,,,,
50144,09.01.1961,,,,,,,,,,,,,,,,,,,11,0,,,,,
50144,10.01.1961,,,,,,,,,,,,,,,,,,,11,0,,,,,
50144,11.01.1961,,,,,,,,,,,,,,,,,,,10,0,,,,,
50144,12.01.1961,,,,,,,,,,,,,,,,,,,10,0,,,,,
50144,13.01.1961,,,,,,,,,,,,,,,,,,,10,0,,,,,
50144,14.01.1961,,,,,,,,,,,,,,,,,,,10,0,,,,,
50144,15.01.1961,,,,,,,,,,,,,,,,,,,11,0,,,,,
50144,16.01.1961,,,,,,,,,,,,,,,,,,,10,0,,,,,
50144,17.01.1961,,,,,,,,,,,,,,,,,,,10,0,,,,,
50144,18.01.1961,,,,,,,,,,,,,,,,,,,9,0,,,,,
50144,19.01.1961,,,,,,,,,,,,,,,,,,,9,0,,,,,
50144,20.01.1961,,,,,,,,,,,,,,,,,,,8,0,,,,,
50144,21.01.1961,,,,,,,,,,,,,,,,,,,8,0,,,,,
50144,22.01.1961,,,,,,,,,,,,,,,,,,,8,0,,,,,
50144,23.01.1961,,,,,,,,,,,,,,,,,,,11,0,,,,,
50144,24.01.1961,,,,,,,,,,,,,,,,,,,12,0,,,,,
50144,25.01.1961,,,,,,,,,,,,,,,,,,,11,0,,,,,
50144,26.01.1961,,,,,,,,,,,,,,,,,,,11,0,,,,,
50144,27.01.1961,,,,,,,,,,,,,,,,,,,11,0,,,,,
50144,28.01.1961,,,,,,,,,,,,,,,,,,,11,0,,,,,
50144,29.01.1961,,,,,,,,,,,,,,,,,,,11,0,,,,,
50144,30.01.1961,,,,,,,,,,,,,,,,,,,8,0,,,,,
50144,31.01.1961,,,,,,,,,,,,,,,,,,,4,0,,,,,
50144,01.02.1961,,,,,,,,,,,,,,,,,,,0,0,,,,,
50144,02.02.1961,,,,,,,,,,,,,,,,,,,0,0,,,,,
50144,03.02.1961,,,,,,,,,,,,,,,,,,,6,0,,,,,
50144,04.02.1961,,,,,,,,,,,,,,,,,,,6,0,,,,,
50144,05.02.1961,,,,,,,,,,,,,,,,,,,28,0,,,,,
50144,06.02.1961,,,,,,,,,,,,,,,,,,,25,0,,,,,
50144,07.02.1961,,,,,,,,,,,,,,,,,,,20,0,,,,,
50144,08.02.1961,,,,,,,,,,,,,,,,,,,11,0,,,,,
50144,09.02.1961,,,,,,,,,,,,,,,,,,,6,0,,,,,
50144,10.02.1961,,,,,,,,,,,,,,,,,,,0,0,,,,,
50144,11.02.1961,,,,,,,,,,,,,,,,,,,0,0,,,,,
50144,12.02.1961,,,,,,,,,,,,,,,,,,,0,0,,,,,
50144,13.02.1961,,,,,,,,,,,,,,,,,,,0,0,,,,,
50144,14.02.1961,,,,,,,,,,,,,,,,,,,0,0,,,,,
50144,15.02.1961,,,,,,,,,,,,,,,,,,,0,0,,,,,
50144,16.02.1961,,,,,,,,,,,,,,,,,,,0,0,,,,,
50144,17.02.1961,,,,,,,,,,,,,,,,,,,0,0,,,,,
50144,18.02.1961,,,,,,,,,,,,,,,,,,,0,0,,,,,
50144,19.02.1961,,,,,,,,,,,,,,,,,,,0,0,,,,,
50144,20.02.1961,,,,,,,,,,,,,,,,,,,0,0,,,,,
50144,21.02.1961,,,,,,,,,,,,,,,,,,,0,0,,,,,
50144,22.02.1961,,,,,,,,,,,,,,,,,,,0,0,,,,,
50144,23.02.1961,,,,,,,,,,,,,,,,,,,0,0,,,,,
50144,24.02.1961,,,,,,,,,,,,,,,,,,,0,0,,,,,
50144,25.02.1961,,,,,,,,,,,,,,,,,,,0,0,,,,,
50144,26.02.1961,,,,,,,,,,,,,,,,,,,0,0,,,,,
50144,27.02.1961,,,,,,,,,,,,,,,,,,,0,0,,,,,
50144,28.02.1961,,,,,,,,,,,,,,,,,,,0,0,,,,,
50144,01.03.1961,,,,,,,,,,,,,,,,,,,0,0,,,,,
50144,02.03.1961,,,,,,,,,,,,,,,,,,,0,0,,,,,
50144,03.03.1961,,,,,,,,,,,,,,,,,,,0,0,,,,,
50144,04.03.1961,,,,,,,,,,,,,,,,,,,0,0,,,,,
50144,05.03.1961,,,,,,,,,,,,,,,,,,,0,0,,,,,
50144,06.03.1961,,,,,,,,,,,,,,,,,,,0,0,,,,,
50144,07.03.1961,,,,,,,,,,,,,,,,,,,0,0,,,,,
50144,08.03.1961,,,,,,,,,,,,,,,,,,,0,0,,,,,
50144,09.03.1961,,,,,,,,,,,,,,,,,,,0,0,,,,,
50144,10.03.1961,,,,,,,,,,,,,,,,,,,0,0,,,,,
50144,11.03.1961,,,,,,,,,,,,,,,,,,,0,0,,,,,
50144,12.03.1961,,,,,,,,,,,,,,,,,,,0,0,,,,,
50144,13.03.1961,,,,,,,,,,,,,,,,,,,0,0,,,,,
50144,14.03.1961,,,,,,,,,,,,,,,,,,,0,0,,,,,
50144,15.03.1961,,,,,,,,,,,,,,,,,,,0,0,,,,,
50144,16.03.1961,,,,,,,,,,,,,,,,,,,0,0,,,,,
50144,17.03.1961,,,,,,,,,,,,,,,,,,,0,0,,,,,
50144,18.03.1961,,,,,,,,,,,,,,,,,,,0,0,,,,,
50144,19.03.1961,,,,,,,,,,,,,,,,,,,0,0,,,,,
50144,20.03.1961,,,,,,,,,,,,,,,,,,,6,0,,,,,
50144,21.03.1961,,,,,,,,,,,,,,,,,,,10,0,,,,,
50144,22.03.1961,,,,,,,,,,,,,,,,,,,15,0,,,,,
50144,23.03.1961,,,,,,,,,,,,,,,,,,,5,0,,,,,
50144,24.03.1961,,,,,,,,,,,,,,,,,,,2,0,,,,,
50144,25.03.1961,,,,,,,,,,,,,,,,,,,0,0,,,,,
50144,26.03.1961,,,,,,,,,,,,,,,,,,,0,0,,,,,
50144,27.03.1961,,,,,,,,,,,,,,,,,,,0,0,,,,,
50144,28.03.1961,,,,,,,,,,,,,,,,,,,0,0,,,,,
50144,29.03.1961,,,,,,,,,,,,,,,,,,,0,0,,,,,
50144,30.03.1961,,,,,,,,,,,,,,,,,,,0,0,,,,,
50144,31.03.1961,,,,,,,,,,,,,,,,,,,0,0,,,,,
50144,01.04.1961,,,,,,,,,,,,,,,,,,,0,0,,,,,
50144,02.04.1961,,,,,,,,,,,,,,,,,,,0,0,,,,,
50144,03.04.1961,,,,,,,,,,,,,,,,,,,0,0,,,,,
50144,04.04.1961,,,,,,,,,,,,,,,,,,,0,0,,,,,
50144,05.04.1961,,,,,,,,,,,,,,,,,,,0,0,,,,,
50144,06.04.1961,,,,,,,,,,,,,,,,,,,0,0,,,,,
50144,07.04.1961,,,,,,,,,,,,,,,,,,,0,0,,,,,
50144,08.04.1961,,,,,,,,,,,,,,,,,,,0,0,,,,,
50144,09.04.1961,,,,,,,,,,,,,,,,,,,0,0,,,,,
50144,10.04.1961,,,,,,,,,,,,,,,,,,,0,0,,,,,
50144,11.04.1961,,,,,,,,,,,,,,,,,,,0,0,,,,,
50144,12.04.1961,,,,,,,,,,,,,,,,,,,0,0,,,,,
50144,13.04.1961,,,,,,,,,,,,,,,,,,,0,0,,,,,
50144,14.04.1961,,,,,,,,,,,,,,,,,,,0,0,,,,,
50144,15.04.1961,,,,,,,,,,,,,,,,,,,0,0,,,,,
50144,16.04.1961,,,,,,,,,,,,,,,,,,,0,0,,,,,
50144,17.04.1961,,,,,,,,,,,,,,,,,,,0,0,,,,,
50144,18.04.1961,,,,,,,,,,,,,,,,,,,0,0,,,,,
50144,19.04.1961,,,,,,,,,,,,,,,,,,,0,0,,,,,
50144,20.04.1961,,,,,,,,,,,,,,,,,,,0,0,,,,,
50144,21.04.1961,,,,,,,,,,,,,,,,,,,0,0,,,,,
50144,22.04.1961,,,,,,,,,,,,,,,,,,,0,0,,,,,
50144,23.04.1961,,,,,,,,,,,,,,,,,,,0,0,,,,,
50144,24.04.1961,,,,,,,,,,,,,,,,,,,0,0,,,,,
50144,25.04.1961,,,,,,,,,,,,,,,,,,,0,0,,,,,
50144,26.04.1961,,,,,,,,,,,,,,,,,,,0,0,,,,,
50144,27.04.1961,,,,,,,,,,,,,,,,,,,0,0,,,,,
50144,28.04.1961,,,,,,,,,,,,,,,,,,,0,0,,,,,
50144,29.04.1961,,,,,,,,,,,,,,,,,,,0,0,,,,,
50144,30.04.1961,,,,,,,,,,,,,,,,,,,0,0,,,,,
50144,01.05.1961,,,,,,,,,,,,,,,,,,,0,0,,,,,
50144,02.05.1961,,,,,,,,,,,,,,,,,,,0,0,,,,,
50144,03.05.1961,,,,,,,,,,,,,,,,,,,0,0,,,,,
50144,04.05.1961,,,,,,,,,,,,,,,,,,,0,0,,,,,
50144,05.05.1961,,,,,,,,,,,,,,,,,,,0,0,,,,,
50144,06.05.1961,,,,,,,,,,,,,,,,,,,0,0,,,,,
50144,07.05.1961,,,,,,,,,,,,,,,,,,,0,0,,,,,
50144,08.05.1961,,,,,,,,,,,,,,,,,,,0,0,,,,,
50144,09.05.1961,,,,,,,,,,,,,,,,,,,0,0,,,,,
50144,10.05.1961,,,,,,,,,,,,,,,,,,,0,0,,,,,
50144,11.05.1961,,,,,,,,,,,,,,,,,,,0,0,,,,,
50144,12.05.1961,,,,,,,,,,,,,,,,,,,0,0,,,,,
50144,13.05.1961,,,,,,,,,,,,,,,,,,,0,0,,,,,
50144,14.05.1961,,,,,,,,,,,,,,,,,,,0,0,,,,,
50144,15.05.1961,,,,,,,,,,,,,,,,,,,0,0,,,,,
50144,16.05.1961,,,,,,,,,,,,,,,,,,,0,0,,,,,
50144,17.05.1961,,,,,,,,,,,,,,,,,,,0,0,,,,,
50144,18.05.1961,,,,,,,,,,,,,,,,,,,0,0,,,,,
50144,19.05.1961,,,,,,,,,,,,,,,,,,,0,0,,,,,
50144,20.05.1961,,,,,,,,,,,,,,,,,,,0,0,,,,,
50144,21.05.1961,,,,,,,,,,,,,,,,,,,0,0,,,,,
50144,22.05.1961,,,,,,,,,,,,,,,,,,,0,0,,,,,
50144,23.05.1961,,,,,,,,,,,,,,,,,,,0,0,,,,,
50144,24.05.1961,,,,,,,,,,,,,,,,,,,0,0,,,,,
50144,25.05.1961,,,,,,,,,,,,,,,,,,,0,0,,,,,
50144,26.05.1961,,,,,,,,,,,,,,,,,,,0,0,,,,,
50144,27.05.1961,,,,,,,,,,,,,,,,,,,0,0,,,,,
50144,28.05.1961,,,,,,,,,,,,,,,,,,,0,0,,,,,
50144,29.05.1961,,,,,,,,,,,,,,,,,,,0,0,,,,,
50144,30.05.1961,,,,,,,,,,,,,,,,,,,0,0,,,,,
50144,31.05.1961,,,,,,,,,,,,,,,,,,,0,0,,,,,
50144,01.06.1961,,,,,,,,,,,,,,,,,,,0,0,,,,,
50144,02.06.1961,,,,,,,,,,,,,,,,,,,0,0,,,,,
50144,03.06.1961,,,,,,,,,,,,,,,,,,,0,0,,,,,
50144,04.06.1961,,,,,,,,,,,,,,,,,,,0,0,,,,,
50144,05.06.1961,,,,,,,,,,,,,,,,,,,0,0,,,,,
50144,06.06.1961,,,,,,,,,,,,,,,,,,,0,0,,,,,
50144,07.06.1961,,,,,,,,,,,,,,,,,,,0,0,,,,,
50144,08.06.1961,,,,,,,,,,,,,,,,,,,0,0,,,,,
50144,09.06.1961,,,,,,,,,,,,,,,,,,,0,0,,,,,
50144,10.06.1961,,,,,,,,,,,,,,,,,,,0,0,,,,,
50144,11.06.1961,,,,,,,,,,,,,,,,,,,0,0,,,,,
50144,12.06.1961,,,,,,,,,,,,,,,,,,,0,0,,,,,
50144,13.06.1961,,,,,,,,,,,,,,,,,,,0,0,,,,,
50144,14.06.1961,,,,,,,,,,,,,,,,,,,0,0,,,,,
50144,15.06.1961,,,,,,,,,,,,,,,,,,,0,0,,,,,
50144,16.06.1961,,,,,,,,,,,,,,,,,,,0,0,,,,,
50144,17.06.1961,,,,,,,,,,,,,,,,,,,0,0,,,,,
50144,18.06.1961,,,,,,,,,,,,,,,,,,,0,0,,,,,
50144,19.06.1961,,,,,,,,,,,,,,,,,,,0,0,,,,,
50144,20.06.1961,,,,,,,,,,,,,,,,,,,0,0,,,,,
50144,21.06.1961,,,,,,,,,,,,,,,,,,,0,0,,,,,
50144,22.06.1961,,,,,,,,,,,,,,,,,,,0,0,,,,,
50144,23.06.1961,,,,,,,,,,,,,,,,,,,0,0,,,,,
50144,24.06.1961,,,,,,,,,,,,,,,,,,,0,0,,,,,
50144,25.06.1961,,,,,,,,,,,,,,,,,,,0,0,,,,,
50144,26.06.1961,,,,,,,,,,,,,,,,,,,0,0,,,,,
50144,27.06.1961,,,,,,,,,,,,,,,,,,,0,0,,,,,
50144,28.06.1961,,,,,,,,,,,,,,,,,,,0,0,,,,,
50144,29.06.1961,,,,,,,,,,,,,,,,,,,0,0,,,,,
50144,30.06.1961,,,,,,,,,,,,,,,,,,,0,0,,,,,
50144,01.07.1961,,,,,,,,,,,,,,,,,,,0,0,,,,,
50144,02.07.1961,,,,,,,,,,,,,,,,,,,0,0,,,,,
50144,03.07.1961,,,,,,,,,,,,,,,,,,,0,0,,,,,
50144,04.07.1961,,,,,,,,,,,,,,,,,,,0,0,,,,,
50144,05.07.1961,,,,,,,,,,,,,,,,,,,0,0,,,,,
50144,06.07.1961,,,,,,,,,,,,,,,,,,,0,0,,,,,
50144,07.07.1961,,,,,,,,,,,,,,,,,,,0,0,,,,,
50144,08.07.1961,,,,,,,,,,,,,,,,,,,0,0,,,,,
50144,09.07.1961,,,,,,,,,,,,,,,,,,,0,0,,,,,
50144,10.07.1961,,,,,,,,,,,,,,,,,,,0,0,,,,,
50144,11.07.1961,,,,,,,,,,,,,,,,,,,0,0,,,,,
50144,12.07.1961,,,,,,,,,,,,,,,,,,,0,0,,,,,
50144,13.07.1961,,,,,,,,,,,,,,,,,,,0,0,,,,,
50144,14.07.1961,,,,,,,,,,,,,,,,,,,0,0,,,,,
50144,15.07.1961,,,,,,,,,,,,,,,,,,,0,0,,,,,
50144,16.07.1961,,,,,,,,,,,,,,,,,,,0,0,,,,,
50144,17.07.1961,,,,,,,,,,,,,,,,,,,0,0,,,,,
50144,18.07.1961,,,,,,,,,,,,,,,,,,,0,0,,,,,
50144,19.07.1961,,,,,,,,,,,,,,,,,,,0,0,,,,,
50144,20.07.1961,,,,,,,,,,,,,,,,,,,0,0,,,,,
50144,21.07.1961,,,,,,,,,,,,,,,,,,,0,0,,,,,
50144,22.07.1961,,,,,,,,,,,,,,,,,,,0,0,,,,,
50144,23.07.1961,,,,,,,,,,,,,,,,,,,0,0,,,,,
50144,24.07.1961,,,,,,,,,,,,,,,,,,,0,0,,,,,
50144,25.07.1961,,,,,,,,,,,,,,,,,,,0,0,,,,,
50144,26.07.1961,,,,,,,,,,,,,,,,,,,0,0,,,,,
50144,27.07.1961,,,,,,,,,,,,,,,,,,,0,0,,,,,
50144,28.07.1961,,,,,,,,,,,,,,,,,,,0,0,,,,,
50144,29.07.1961,,,,,,,,,,,,,,,,,,,0,0,,,,,
50144,30.07.1961,,,,,,,,,,,,,,,,,,,0,0,,,,,
50144,31.07.1961,,,,,,,,,,,,,,,,,,,0,0,,,,,
50144,01.08.1961,,,,,,,,,,,,,,,,,,,0,0,,,,,
50144,02.08.1961,,,,,,,,,,,,,,,,,,,0,0,,,,,
50144,03.08.1961,,,,,,,,,,,,,,,,,,,0,0,,,,,
50144,04.08.1961,,,,,,,,,,,,,,,,,,,0,0,,,,,
50144,05.08.1961,,,,,,,,,,,,,,,,,,,0,0,,,,,
50144,06.08.1961,,,,,,,,,,,,,,,,,,,0,0,,,,,
50144,07.08.1961,,,,,,,,,,,,,,,,,,,0,0,,,,,
50144,08.08.1961,,,,,,,,,,,,,,,,,,,0,0,,,,,
50144,09.08.1961,,,,,,,,,,,,,,,,,,,0,0,,,,,
50144,10.08.1961,,,,,,,,,,,,,,,,,,,0,0,,,,,
50144,11.08.1961,,,,,,,,,,,,,,,,,,,0,0,,,,,
50144,12.08.1961,,,,,,,,,,,,,,,,,,,0,0,,,,,
50144,13.08.1961,,,,,,,,,,,,,,,,,,,0,0,,,,,
50144,14.08.1961,,,,,,,,,,,,,,,,,,,0,0,,,,,
50144,15.08.1961,,,,,,,,,,,,,,,,,,,0,0,,,,,
50144,16.08.1961,,,,,,,,,,,,,,,,,,,0,0,,,,,
50144,17.08.1961,,,,,,,,,,,,,,,,,,,0,0,,,,,
50144,18.08.1961,,,,,,,,,,,,,,,,,,,0,0,,,,,
50144,19.08.1961,,,,,,,,,,,,,,,,,,,0,0,,,,,
50144,20.08.1961,,,,,,,,,,,,,,,,,,,0,0,,,,,
50144,21.08.1961,,,,,,,,,,,,,,,,,,,0,0,,,,,
50144,22.08.1961,,,,,,,,,,,,,,,,,,,0,0,,,,,
50144,23.08.1961,,,,,,,,,,,,,,,,,,,0,0,,,,,
50144,24.08.1961,,,,,,,,,,,,,,,,,,,0,0,,,,,
50144,25.08.1961,,,,,,,,,,,,,,,,,,,0,0,,,,,
50144,26.08.1961,,,,,,,,,,,,,,,,,,,0,0,,,,,
50144,27.08.1961,,,,,,,,,,,,,,,,,,,0,0,,,,,
50144,28.08.1961,,,,,,,,,,,,,,,,,,,0,0,,,,,
50144,29.08.1961,,,,,,,,,,,,,,,,,,,0,0,,,,,
50144,30.08.1961,,,,,,,,,,,,,,,,,,,0,0,,,,,
50144,31.08.1961,,,,,,,,,,,,,,,,,,,0,0,,,,,
50144,01.09.1961,,,,,,,,,,,,,,,,,,,0,0,,,,,
50144,02.09.1961,,,,,,,,,,,,,,,,,,,0,0,,,,,
50144,03.09.1961,,,,,,,,,,,,,,,,,,,0,0,,,,,
50144,04.09.1961,,,,,,,,,,,,,,,,,,,0,0,,,,,
50144,05.09.1961,,,,,,,,,,,,,,,,,,,0,0,,,,,
50144,06.09.1961,,,,,,,,,,,,,,,,,,,0,0,,,,,
50144,07.09.1961,,,,,,,,,,,,,,,,,,,0,0,,,,,
50144,08.09.1961,,,,,,,,,,,,,,,,,,,0,0,,,,,
50144,09.09.1961,,,,,,,,,,,,,,,,,,,0,0,,,,,
50144,10.09.1961,,,,,,,,,,,,,,,,,,,0,0,,,,,
50144,11.09.1961,,,,,,,,,,,,,,,,,,,0,0,,,,,
50144,12.09.1961,,,,,,,,,,,,,,,,,,,0,0,,,,,
50144,13.09.1961,,,,,,,,,,,,,,,,,,,0,0,,,,,
50144,14.09.1961,,,,,,,,,,,,,,,,,,,0,0,,,,,
50144,15.09.1961,,,,,,,,,,,,,,,,,,,0,0,,,,,
50144,16.09.1961,,,,,,,,,,,,,,,,,,,0,0,,,,,
50144,17.09.1961,,,,,,,,,,,,,,,,,,,0,0,,,,,
50144,18.09.1961,,,,,,,,,,,,,,,,,,,0,0,,,,,
50144,19.09.1961,,,,,,,,,,,,,,,,,,,0,0,,,,,
50144,20.09.1961,,,,,,,,,,,,,,,,,,,0,0,,,,,
50144,21.09.1961,,,,,,,,,,,,,,,,,,,0,0,,,,,
50144,22.09.1961,,,,,,,,,,,,,,,,,,,0,0,,,,,
50144,23.09.1961,,,,,,,,,,,,,,,,,,,0,0,,,,,
50144,24.09.1961,,,,,,,,,,,,,,,,,,,0,0,,,,,
50144,25.09.1961,,,,,,,,,,,,,,,,,,,0,0,,,,,
50144,26.09.1961,,,,,,,,,,,,,,,,,,,0,0,,,,,
50144,27.09.1961,,,,,,,,,,,,,,,,,,,0,0,,,,,
50144,28.09.1961,,,,,,,,,,,,,,,,,,,0,0,,,,,
50144,29.09.1961,,,,,,,,,,,,,,,,,,,0,0,,,,,
50144,30.09.1961,,,,,,,,,,,,,,,,,,,0,0,,,,,
50144,01.10.1961,,,,,,,,,,,,,,,,,,,0,0,,,,,
50144,02.10.1961,,,,,,,,,,,,,,,,,,,0,0,,,,,
50144,03.10.1961,,,,,,,,,,,,,,,,,,,0,0,,,,,
50144,04.10.1961,,,,,,,,,,,,,,,,,,,0,0,,,,,
50144,05.10.1961,,,,,,,,,,,,,,,,,,,0,0,,,,,
50144,06.10.1961,,,,,,,,,,,,,,,,,,,0,0,,,,,
50144,07.10.1961,,,,,,,,,,,,,,,,,,,0,0,,,,,
50144,08.10.1961,,,,,,,,,,,,,,,,,,,0,0,,,,,
50144,09.10.1961,,,,,,,,,,,,,,,,,,,0,0,,,,,
50144,10.10.1961,,,,,,,,,,,,,,,,,,,0,0,,,,,
50144,11.10.1961,,,,,,,,,,,,,,,,,,,0,0,,,,,
50144,12.10.1961,,,,,,,,,,,,,,,,,,,0,0,,,,,
50144,13.10.1961,,,,,,,,,,,,,,,,,,,0,0,,,,,
50144,14.10.1961,,,,,,,,,,,,,,,,,,,0,0,,,,,
50144,15.10.1961,,,,,,,,,,,,,,,,,,,0,0,,,,,
50144,16.10.1961,,,,,,,,,,,,,,,,,,,0,0,,,,,
50144,17.10.1961,,,,,,,,,,,,,,,,,,,0,0,,,,,
50144,18.10.1961,,,,,,,,,,,,,,,,,,,0,0,,,,,
50144,19.10.1961,,,,,,,,,,,,,,,,,,,0,0,,,,,
50144,20.10.1961,,,,,,,,,,,,,,,,,,,0,0,,,,,
50144,21.10.1961,,,,,,,,,,,,,,,,,,,0,0,,,,,
50144,22.10.1961,,,,,,,,,,,,,,,,,,,0,0,,,,,
50144,23.10.1961,,,,,,,,,,,,,,,,,,,0,0,,,,,
50144,24.10.1961,,,,,,,,,,,,,,,,,,,0,0,,,,,
50144,25.10.1961,,,,,,,,,,,,,,,,,,,0,0,,,,,
50144,26.10.1961,,,,,,,,,,,,,,,,,,,0,0,,,,,
50144,27.10.1961,,,,,,,,,,,,,,,,,,,0,0,,,,,
50144,28.10.1961,,,,,,,,,,,,,,,,,,,0,0,,,,,
50144,29.10.1961,,,,,,,,,,,,,,,,,,,0,0,,,,,
50144,30.10.1961,,,,,,,,,,,,,,,,,,,0,0,,,,,
50144,31.10.1961,,,,,,,,,,,,,,,,,,,0,0,,,,,
50144,01.11.1961,,,,,,,,,,,,,,,,,,,0,0,,,,,
50144,02.11.1961,,,,,,,,,,,,,,,,,,,0,0,,,,,
50144,03.11.1961,,,,,,,,,,,,,,,,,,,0,0,,,,,
50144,04.11.1961,,,,,,,,,,,,,,,,,,,0,0,,,,,
50144,05.11.1961,,,,,,,,,,,,,,,,,,,0,0,,,,,
50144,06.11.1961,,,,,,,,,,,,,,,,,,,0,0,,,,,
50144,07.11.1961,,,,,,,,,,,,,,,,,,,0,0,,,,,
50144,08.11.1961,,,,,,,,,,,,,,,,,,,0,0,,,,,
50144,09.11.1961,,,,,,,,,,,,,,,,,,,0,0,,,,,
50144,10.11.1961,,,,,,,,,,,,,,,,,,,0,0,,,,,
50144,11.11.1961,,,,,,,,,,,,,,,,,,,0,0,,,,,
50144,12.11.1961,,,,,,,,,,,,,,,,,,,0,0,,,,,
50144,13.11.1961,,,,,,,,,,,,,,,,,,,0,0,,,,,
50144,14.11.1961,,,,,,,,,,,,,,,,,,,0,0,,,,,
50144,15.11.1961,,,,,,,,,,,,,,,,,,,0,0,,,,,
50144,16.11.1961,,,,,,,,,,,,,,,,,,,0,0,,,,,
50144,17.11.1961,,,,,,,,,,,,,,,,,,,0,0,,,,,
50144,18.11.1961,,,,,,,,,,,,,,,,,,,0,0,,,,,
50144,19.11.1961,,,,,,,,,,,,,,,,,,,0,0,,,,,
50144,20.11.1961,,,,,,,,,,,,,,,,,,,0,0,,,,,
50144,21.11.1961,,,,,,,,,,,,,,,,,,,0,0,,,,,
50144,22.11.1961,,,,,,,,,,,,,,,,,,,0,0,,,,,
50144,23.11.1961,,,,,,,,,,,,,,,,,,,0,0,,,,,
50144,24.11.1961,,,,,,,,,,,,,,,,,,,0,0,,,,,
50144,25.11.1961,,,,,,,,,,,,,,,,,,,0,0,,,,,
50144,26.11.1961,,,,,,,,,,,,,,,,,,,0,0,,,,,
50144,27.11.1961,,,,,,,,,,,,,,,,,,,0,0,,,,,
50144,28.11.1961,,,,,,,,,,,,,,,,,,,0,0,,,,,
50144,29.11.1961,,,,,,,,,,,,,,,,,,,0,0,,,,,
50144,30.11.1961,,,,,,,,,,,,,,,,,,,0,0,,,,,
50144,01.12.1961,,,,,,,,,,,,,,,,,,,0,0,,,,,
50144,02.12.1961,,,,,,,,,,,,,,,,,,,0,0,,,,,
50144,03.12.1961,,,,,,,,,,,,,,,,,,,0,0,,,,,
50144,04.12.1961,,,,,,,,,,,,,,,,,,,0,0,,,,,
50144,05.12.1961,,,,,,,,,,,,,,,,,,,0,0,,,,,
50144,06.12.1961,,,,,,,,,,,,,,,,,,,0,0,,,,,
50144,07.12.1961,,,,,,,,,,,,,,,,,,,0,0,,,,,
50144,08.12.1961,,,,,,,,,,,,,,,,,,,0,0,,,,,
50144,09.12.1961,,,,,,,,,,,,,,,,,,,0,0,,,,,
50144,10.12.1961,,,,,,,,,,,,,,,,,,,0,0,,,,,
50144,11.12.1961,,,,,,,,,,,,,,,,,,,3,0,,,,,
50144,12.12.1961,,,,,,,,,,,,,,,,,,,0,0,,,,,
50144,13.12.1961,,,,,,,,,,,,,,,,,,,0,0,,,,,
50144,14.12.1961,,,,,,,,,,,,,,,,,,,3,0,,,,,
50144,15.12.1961,,,,,,,,,,,,,,,,,,,3,0,,,,,
50144,16.12.1961,,,,,,,,,,,,,,,,,,,4,0,,,,,
50144,17.12.1961,,,,,,,,,,,,,,,,,,,4,0,,,,,
50144,18.12.1961,,,,,,,,,,,,,,,,,,,4,0,,,,,
50144,19.12.1961,,,,,,,,,,,,,,,,,,,4,0,,,,,
50144,20.12.1961,,,,,,,,,,,,,,,,,,,4,0,,,,,
50144,21.12.1961,,,,,,,,,,,,,,,,,,,7,0,,,,,
50144,22.12.1961,,,,,,,,,,,,,,,,,,,7,0,,,,,
50144,23.12.1961,,,,,,,,,,,,,,,,,,,7,0,,,,,
50144,24.12.1961,,,,,,,,,,,,,,,,,,,6,0,,,,,
50144,25.12.1961,,,,,,,,,,,,,,,,,,,6,0,,,,,
50144,26.12.1961,,,,,,,,,,,,,,,,,,,6,0,,,,,
50144,27.12.1961,,,,,,,,,,,,,,,,,,,6,0,,,,,
50144,28.12.1961,,,,,,,,,,,,,,,,,,,5,0,,,,,
50144,29.12.1961,,,,,,,,,,,,,,,,,,,4,0,,,,,
50144,30.12.1961,,,,,,,,,,,,,,,,,,,4,0,,,,,
50144,31.12.1961,,,,,,,,,,,,,,,,,,,4,0,,,,,
50144,01.01.1962,,,,,,,,,,,,,,,,,,,4,0,,,,,
50144,02.01.1962,,,,,,,,,,,,,,,,,,,4,0,,,,,
50144,03.01.1962,,,,,,,,,,,,,,,,,,,4,0,,,,,
50144,04.01.1962,,,,,,,,,,,,,,,,,,,4,0,,,,,
50144,05.01.1962,,,,,,,,,,,,,,,,,,,4,0,,,,,
50144,06.01.1962,,,,,,,,,,,,,,,,,,,4,0,,,,,
50144,07.01.1962,,,,,,,,,,,,,,,,,,,5,0,,,,,
50144,08.01.1962,,,,,,,,,,,,,,,,,,,5,0,,,,,
50144,09.01.1962,,,,,,,,,,,,,,,,,,,3,0,,,,,
50144,10.01.1962,,,,,,,,,,,,,,,,,,,3,0,,,,,
50144,11.01.1962,,,,,,,,,,,,,,,,,,,0,0,,,,,
50144,12.01.1962,,,,,,,,,,,,,,,,,,,0,0,,,,,
50144,13.01.1962,,,,,,,,,,,,,,,,,,,0,0,,,,,
50144,14.01.1962,,,,,,,,,,,,,,,,,,,0,0,,,,,
50144,15.01.1962,,,,,,,,,,,,,,,,,,,3,0,,,,,
50144,16.01.1962,,,,,,,,,,,,,,,,,,,2,0,,,,,
50144,17.01.1962,,,,,,,,,,,,,,,,,,,0,0,,,,,
50144,18.01.1962,,,,,,,,,,,,,,,,,,,0,0,,,,,
50144,19.01.1962,,,,,,,,,,,,,,,,,,,0,0,,,,,
50144,20.01.1962,,,,,,,,,,,,,,,,,,,0,0,,,,,
50144,21.01.1962,,,,,,,,,,,,,,,,,,,0,0,,,,,
50144,22.01.1962,,,,,,,,,,,,,,,,,,,0,0,,,,,
50144,23.01.1962,,,,,,,,,,,,,,,,,,,0,0,,,,,
50144,24.01.1962,,,,,,,,,,,,,,,,,,,0,0,,,,,
50144,25.01.1962,,,,,,,,,,,,,,,,,,,0,0,,,,,
50144,26.01.1962,,,,,,,,,,,,,,,,,,,0,0,,,,,
50144,27.01.1962,,,,,,,,,,,,,,,,,,,0,0,,,,,
50144,28.01.1962,,,,,,,,,,,,,,,,,,,2,0,,,,,
50144,29.01.1962,,,,,,,,,,,,,,,,,,,8,0,,,,,
50144,30.01.1962,,,,,,,,,,,,,,,,,,,10,0,,,,,
50144,31.01.1962,,,,,,,,,,,,,,,,,,,10,0,,,,,
50144,01.02.1962,,,,,,,,,,,,,,,,,,,0,0,,,,,
50144,02.02.1962,,,,,,,,,,,,,,,,,,,10,0,,,,,
50144,03.02.1962,,,,,,,,,,,,,,,,,,,1,0,,,,,
50144,04.02.1962,,,,,,,,,,,,,,,,,,,11,0,,,,,
50144,05.02.1962,,,,,,,,,,,,,,,,,,,10,0,,,,,
50144,06.02.1962,,,,,,,,,,,,,,,,,,,13,0,,,,,
50144,07.02.1962,,,,,,,,,,,,,,,,,,,9,0,,,,,
50144,08.02.1962,,,,,,,,,,,,,,,,,,,7,0,,,,,
50144,09.02.1962,,,,,,,,,,,,,,,,,,,4,0,,,,,
50144,10.02.1962,,,,,,,,,,,,,,,,,,,0,0,,,,,
50144,11.02.1962,,,,,,,,,,,,,,,,,,,0,0,,,,,
50144,12.02.1962,,,,,,,,,,,,,,,,,,,0,0,,,,,
50144,13.02.1962,,,,,,,,,,,,,,,,,,,0,0,,,,,
50144,14.02.1962,,,,,,,,,,,,,,,,,,,2,0,,,,,
50144,15.02.1962,,,,,,,,,,,,,,,,,,,16,0,,,,,
50144,16.02.1962,,,,,,,,,,,,,,,,,,,30,0,,,,,
50144,17.02.1962,,,,,,,,,,,,,,,,,,,16,0,,,,,
50144,18.02.1962,,,,,,,,,,,,,,,,,,,14,0,,,,,
50144,19.02.1962,,,,,,,,,,,,,,,,,,,13,0,,,,,
50144,20.02.1962,,,,,,,,,,,,,,,,,,,8,0,,,,,
50144,21.02.1962,,,,,,,,,,,,,,,,,,,7,0,,,,,
50144,22.02.1962,,,,,,,,,,,,,,,,,,,6,0,,,,,
50144,23.02.1962,,,,,,,,,,,,,,,,,,,6,0,,,,,
50144,24.02.1962,,,,,,,,,,,,,,,,,,,6,0,,,,,
50144,25.02.1962,,,,,,,,,,,,,,,,,,,10,0,,,,,
50144,26.02.1962,,,,,,,,,,,,,,,,,,,11,0,,,,,
50144,27.02.1962,,,,,,,,,,,,,,,,,,,9,0,,,,,
50144,28.02.1962,,,,,,,,,,,,,,,,,,,8,0,,,,,
50144,01.03.1962,,,,,,,,,,,,,,,,,,,4,0,,,,,
50144,02.03.1962,,,,,,,,,,,,,,,,,,,3,0,,,,,
50144,03.03.1962,,,,,,,,,,,,,,,,,,,3,0,,,,,
50144,04.03.1962,,,,,,,,,,,,,,,,,,,3,0,,,,,
50144,05.03.1962,,,,,,,,,,,,,,,,,,,3,0,,,,,
50144,06.03.1962,,,,,,,,,,,,,,,,,,,7,0,,,,,
50144,07.03.1962,,,,,,,,,,,,,,,,,,,3,0,,,,,
50144,08.03.1962,,,,,,,,,,,,,,,,,,,2,0,,,,,
50144,09.03.1962,,,,,,,,,,,,,,,,,,,0,0,,,,,
50144,10.03.1962,,,,,,,,,,,,,,,,,,,0,0,,,,,
50144,11.03.1962,,,,,,,,,,,,,,,,,,,0,0,,,,,
50144,12.03.1962,,,,,,,,,,,,,,,,,,,0,0,,,,,
50144,13.03.1962,,,,,,,,,,,,,,,,,,,2,0,,,,,
50144,14.03.1962,,,,,,,,,,,,,,,,,,,2,0,,,,,
50144,15.03.1962,,,,,,,,,,,,,,,,,,,0,0,,,,,
50144,16.03.1962,,,,,,,,,,,,,,,,,,,0,0,,,,,
50144,17.03.1962,,,,,,,,,,,,,,,,,,,0,0,,,,,
50144,18.03.1962,,,,,,,,,,,,,,,,,,,0,0,,,,,
50144,19.03.1962,,,,,,,,,,,,,,,,,,,0,0,,,,,
50144,20.03.1962,,,,,,,,,,,,,,,,,,,0,0,,,,,
50144,21.03.1962,,,,,,,,,,,,,,,,,,,0,0,,,,,
50144,22.03.1962,,,,,,,,,,,,,,,,,,,0,0,,,,,
50144,23.03.1962,,,,,,,,,,,,,,,,,,,0,0,,,,,
50144,24.03.1962,,,,,,,,,,,,,,,,,,,0,0,,,,,
50144,25.03.1962,,,,,,,,,,,,,,,,,,,0,0,,,,,
50144,26.03.1962,,,,,,,,,,,,,,,,,,,0,0,,,,,
50144,27.03.1962,,,,,,,,,,,,,,,,,,,0,0,,,,,
50144,28.03.1962,,,,,,,,,,,,,,,,,,,0,0,,,,,
50144,29.03.1962,,,,,,,,,,,,,,,,,,,0,0,,,,,
50144,30.03.1962,,,,,,,,,,,,,,,,,,,0,0,,,,,
50144,31.03.1962,,,,,,,,,,,,,,,,,,,0,0,,,,,
50144,01.04.1962,,,,,,,,,,,,,,,,,,,0,0,,,,,
50144,02.04.1962,,,,,,,,,,,,,,,,,,,0,0,,,,,
50144,03.04.1962,,,,,,,,,,,,,,,,,,,0,0,,,,,
50144,04.04.1962,,,,,,,,,,,,,,,,,,,0,0,,,,,
50144,05.04.1962,,,,,,,,,,,,,,,,,,,0,0,,,,,
50144,06.04.1962,,,,,,,,,,,,,,,,,,,0,0,,,,,
50144,07.04.1962,,,,,,,,,,,,,,,,,,,0,0,,,,,
50144,08.04.1962,,,,,,,,,,,,,,,,,,,0,0,,,,,
50144,09.04.1962,,,,,,,,,,,,,,,,,,,0,0,,,,,
50144,10.04.1962,,,,,,,,,,,,,,,,,,,0,0,,,,,
50144,11.04.1962,,,,,,,,,,,,,,,,,,,0,0,,,,,
50144,12.04.1962,,,,,,,,,,,,,,,,,,,0,0,,,,,
50144,13.04.1962,,,,,,,,,,,,,,,,,,,0,0,,,,,
50144,14.04.1962,,,,,,,,,,,,,,,,,,,0,0,,,,,
50144,15.04.1962,,,,,,,,,,,,,,,,,,,0,0,,,,,
50144,16.04.1962,,,,,,,,,,,,,,,,,,,0,0,,,,,
50144,17.04.1962,,,,,,,,,,,,,,,,,,,0,0,,,,,
50144,18.04.1962,,,,,,,,,,,,,,,,,,,0,0,,,,,
50144,19.04.1962,,,,,,,,,,,,,,,,,,,0,0,,,,,
50144,20.04.1962,,,,,,,,,,,,,,,,,,,0,0,,,,,
50144,21.04.1962,,,,,,,,,,,,,,,,,,,0,0,,,,,
50144,22.04.1962,,,,,,,,,,,,,,,,,,,0,0,,,,,
50144,23.04.1962,,,,,,,,,,,,,,,,,,,0,0,,,,,
50144,24.04.1962,,,,,,,,,,,,,,,,,,,0,0,,,,,
50144,25.04.1962,,,,,,,,,,,,,,,,,,,0,0,,,,,
50144,26.04.1962,,,,,,,,,,,,,,,,,,,0,0,,,,,
50144,27.04.1962,,,,,,,,,,,,,,,,,,,0,0,,,,,
50144,28.04.1962,,,,,,,,,,,,,,,,,,,0,0,,,,,
50144,29.04.1962,,,,,,,,,,,,,,,,,,,0,0,,,,,
50144,30.04.1962,,,,,,,,,,,,,,,,,,,0,0,,,,,
50144,01.05.1962,,,,,,,,,,,,,,,,,,,0,0,,,,,
50144,02.05.1962,,,,,,,,,,,,,,,,,,,0,0,,,,,
50144,03.05.1962,,,,,,,,,,,,,,,,,,,0,0,,,,,
50144,04.05.1962,,,,,,,,,,,,,,,,,,,0,0,,,,,
50144,05.05.1962,,,,,,,,,,,,,,,,,,,0,0,,,,,
50144,06.05.1962,,,,,,,,,,,,,,,,,,,0,0,,,,,
50144,07.05.1962,,,,,,,,,,,,,,,,,,,0,0,,,,,
50144,08.05.1962,,,,,,,,,,,,,,,,,,,0,0,,,,,
50144,09.05.1962,,,,,,,,,,,,,,,,,,,0,0,,,,,
50144,10.05.1962,,,,,,,,,,,,,,,,,,,0,0,,,,,
50144,11.05.1962,,,,,,,,,,,,,,,,,,,0,0,,,,,
50144,12.05.1962,,,,,,,,,,,,,,,,,,,0,0,,,,,
50144,13.05.1962,,,,,,,,,,,,,,,,,,,0,0,,,,,
50144,14.05.1962,,,,,,,,,,,,,,,,,,,0,0,,,,,
50144,15.05.1962,,,,,,,,,,,,,,,,,,,0,0,,,,,
50144,16.05.1962,,,,,,,,,,,,,,,,,,,0,0,,,,,
50144,17.05.1962,,,,,,,,,,,,,,,,,,,0,0,,,,,
50144,18.05.1962,,,,,,,,,,,,,,,,,,,0,0,,,,,
50144,19.05.1962,,,,,,,,,,,,,,,,,,,0,0,,,,,
50144,20.05.1962,,,,,,,,,,,,,,,,,,,0,0,,,,,
50144,21.05.1962,,,,,,,,,,,,,,,,,,,0,0,,,,,
50144,22.05.1962,,,,,,,,,,,,,,,,,,,0,0,,,,,
50144,23.05.1962,,,,,,,,,,,,,,,,,,,0,0,,,,,
50144,24.05.1962,,,,,,,,,,,,,,,,,,,0,0,,,,,
50144,25.05.1962,,,,,,,,,,,,,,,,,,,0,0,,,,,
50144,26.05.1962,,,,,,,,,,,,,,,,,,,0,0,,,,,
50144,27.05.1962,,,,,,,,,,,,,,,,,,,0,0,,,,,
50144,28.05.1962,,,,,,,,,,,,,,,,,,,0,0,,,,,
50144,29.05.1962,,,,,,,,,,,,,,,,,,,0,0,,,,,
50144,30.05.1962,,,,,,,,,,,,,,,,,,,0,0,,,,,
50144,31.05.1962,,,,,,,,,,,,,,,,,,,0,0,,,,,
50144,01.06.1962,,,,,,,,,,,,,,,,,,,0,0,,,,,
50144,02.06.1962,,,,,,,,,,,,,,,,,,,0,0,,,,,
50144,03.06.1962,,,,,,,,,,,,,,,,,,,0,0,,,,,
50144,04.06.1962,,,,,,,,,,,,,,,,,,,0,0,,,,,
50144,05.06.1962,,,,,,,,,,,,,,,,,,,0,0,,,,,
50144,06.06.1962,,,,,,,,,,,,,,,,,,,0,0,,,,,
50144,07.06.1962,,,,,,,,,,,,,,,,,,,0,0,,,,,
50144,08.06.1962,,,,,,,,,,,,,,,,,,,0,0,,,,,
50144,09.06.1962,,,,,,,,,,,,,,,,,,,0,0,,,,,
50144,10.06.1962,,,,,,,,,,,,,,,,,,,0,0,,,,,
50144,11.06.1962,,,,,,,,,,,,,,,,,,,0,0,,,,,
50144,12.06.1962,,,,,,,,,,,,,,,,,,,0,0,,,,,
50144,13.06.1962,,,,,,,,,,,,,,,,,,,0,0,,,,,
50144,14.06.1962,,,,,,,,,,,,,,,,,,,0,0,,,,,